Location: Caltech
(34.1382°N, 118.1253°W)
Time: 21:14:25
(UTC-07:00)

JAS-1B - Visible Passes

Search period start: 30 April 2016 00:00
Search period end: 10 May 2016 00:00
Orbit: 912 x 1743 km, 99.0° (Epoch: 30 April)

Date Brightness Start Highest point End Pass type
(mag) Time Alt. Az. Time Alt. Az. Time Alt. Az.
30 Apr 7.7 19:57:34 10° NNE 20:06:18 66° E 20:13:32 10° S visible
30 Apr 9.9 21:49:12 10° N 21:55:52 25° WNW 22:01:48 10° WSW visible
01 May 7.7 20:16:35 10° NNE 20:25:24 87° ESE 20:32:38 10° SSW visible
01 May 10.2 22:09:07 10° NNW 22:14:27 18° NW 22:19:19 10° W visible
02 May 11.2 05:10:41 10° ENE 05:14:00 12° NE 05:17:20 10° NNE visible
02 May 8.0 20:35:43 10° N 20:44:22 70° WNW 20:51:31 10° SSW visible
02 May 10.4 22:29:39 10° NNW 22:32:57 13° NW 22:36:04 10° WNW visible
03 May 10.9 05:27:01 10° E 05:32:30 17° NE 05:38:04 10° NNE visible
03 May 8.5 20:54:58 10° N 21:03:14 52° WNW 21:10:09 10° SW visible
04 May 9.1 21:14:22 10° N 21:22:01 38° WNW 21:28:32 10° SW visible
05 May 9.6 21:33:55 10° N 21:40:43 28° WNW 21:46:39 10° WSW visible
06 May 7.6 20:01:37 10° NNE 20:09:56 73° ESE 20:16:46 10° S visible
06 May 10.0 21:53:42 10° NNW 21:59:20 20° WNW 22:04:24 10° WSW visible
07 May 7.7 20:20:41 10° NNE 20:28:58 83° WNW 20:35:47 10° SSW visible
07 May 10.3 22:13:56 10° NNW 22:17:53 14° NW 22:21:34 10° W visible
08 May 11.1 05:13:10 10° E 05:17:40 14° NE 05:22:10 10° NNE visible
08 May 8.1 20:39:52 10° N 20:47:53 61° WNW 20:54:33 10° SSW visible
09 May 8.7 20:59:10 10° N 21:06:43 44° WNW 21:13:05 10° SW visible
